DW5595 Weather Reports


Display with metric or nautical units.
time (UTC)temp
F
wind
direction
speed
MPH
gust
MPH
rain 1hr
in
rain 24hr
in
rain mn
in
humidity
%
barometer
mb
20260901034535 72 148 0.0 0.0 0.00 0.00 0.00 94 1020.0
20260901033031 73 148 0.0 0.0 0.00 0.00 0.00 94 1020.0
20260901031547 73 148 0.0 0.0 0.00 0.00 0.00 94 1020.1
20260901030029 73 148 0.0 0.0 0.00 0.00 0.00 93 1020.1
20260901024533 73 148 0.0 0.0 0.00 0.00 0.00 93 1020.2
20260901023015 74 148 0.0 0.0 0.00 0.00 0.00 93 1020.1
20260901021532 74 148 0.0 0.0 0.00 0.00 0.00 93 1020.0
20260901020031 74 148 0.0 0.0 0.00 0.00 0.00 92 1020.0
20260901014531 75 148 0.0 0.0 0.00 0.00 0.00 92 1019.8
20260901013033 75 148 0.0 0.0 0.00 0.00 0.00 92 1019.6
20260901011528 75 148 0.0 0.0 0.00 0.00 0.00 91 1019.5
20260901010037 76 148 0.0 0.0 0.00 0.00 0.00 90 1019.3
20260901004537 77 148 0.0 0.0 0.00 0.00 0.00 89 1019.2
20260901003035 78 148 0.0 0.0 0.00 0.00 0.00 88 1019.1
20260901001515 78 148 0.0 0.0 0.00 0.00 0.00 86 1019.1
20260901000028 80 148 0.0 0.0 0.00 0.00 0.00 86 1018.9
20260831234533 81 5 0.0 0.0 0.00 0.00 0.00 84 1018.9
20260831233034 82 5 0.0 0.0 0.00 0.00 0.00 80 1018.8
20260831231530 82 5 0.0 0.0 0.00 0.00 0.00 80 1018.8
20260831230023 83 5 0.0 0.0 0.00 0.00 0.00 77 1019.1
20260831224517 83 5 0.0 0.0 0.00 0.00 0.00 78 1019.2
20260831223019 84 5 0.0 0.0 0.00 0.00 0.00 76 1019.2
20260831221542 85 9 0.0 0.0 0.00 0.00 0.00 72 1019.3
20260831220031 86 5 0.0 2.0 0.00 0.00 0.00 71 1019.3
20260831214536 86 15 1.0 3.0 0.00 0.00 0.00 68 1019.4
20260831213026 87 32 1.0 3.0 0.00 0.00 0.00 67 1019.4
20260831211524 87 150 0.0 1.0 0.00 0.00 0.00 64 1019.3
20260831210016 87 128 0.0 1.0 0.00 0.00 0.00 67 1019.5
20260831204528 87 128 0.0 1.0 0.00 0.00 0.00 67 1019.6
20260831203040 86 169 0.0 0.0 0.00 0.00 0.00 66 1019.6
20260831201537 87 169 0.0 0.0 0.00 0.00 0.00 65 1019.7
20260831200035 90 169 0.0 2.0 0.00 0.00 0.00 58 1019.8
20260831194556 91 38 1.0 3.0 0.00 0.00 0.00 55 1020.0
20260831193023 90 166 2.0 4.0 0.00 0.00 0.00 61 1020.0
20260831191538 89 316 1.0 3.0 0.00 0.00 0.00 57 1020.3
20260831190018 89 337 2.0 5.0 0.00 0.00 0.00 54 1020.1
20260831184544 89 31 1.0 2.0 0.00 0.00 0.00 57 1020.2
20260831183031 90 156 0.0 2.0 0.00 0.00 0.00 59 1020.4
20260831181535 88 181 1.0 5.0 0.00 0.00 0.00 61 1020.6
20260831180004 89 163 0.0 2.0 0.00 0.00 0.00 58 1020.7
20260831174503 89 251 0.0 4.0 0.00 0.00 0.00 58 1020.9
20260831173031 88 188 2.0 5.0 0.00 0.00 0.00 58 1020.9
20260831171538 88 147 2.0 5.0 0.00 0.00 0.00 66 1021.1
20260831170031 88 184 0.0 2.0 0.00 0.00 0.00 65 1021.1
20260831164535 88 315 2.0 4.0 0.00 0.00 0.00 63 1021.3
20260831163010 87 5 0.0 1.0 0.00 0.00 0.00 65 1021.4
20260831161507 86 165 0.0 3.0 0.00 0.00 0.00 64 1021.5
20260831160034 86 146 0.0 2.0 0.00 0.00 0.00 67 1021.6
20260831154615 84 9 0.0 3.0 0.00 0.00 0.00 71 1021.5
20260831153020 84 352 0.0 2.0 0.00 0.00 0.00 72 1021.5
20260831151533 82 350 0.0 2.0 0.00 0.00 0.00 73 1021.5
20260831150014 81 23 0.0 2.0 0.00 0.00 0.00 76 1021.5
20260831144523 79 86 0.0 2.0 0.00 0.00 0.00 81 1021.7
20260831143008 78 330 0.0 3.0 0.00 0.00 0.00 84 1021.6
20260831141531 77 195 0.0 0.0 0.00 0.00 0.00 86 1021.6
20260831140032 75 321 0.0 2.0 0.00 0.00 0.00 89 1021.6
20260831134528 73 104 0.0 0.0 0.00 0.00 0.00 94 1021.6
20260831133020 71 105 0.0 0.0 0.00 0.00 0.00 97 1021.5
20260831131517 70 105 0.0 0.0 0.00 0.00 0.00 97 1021.6
20260831130010 68 22 0.0 0.0 0.00 0.00 0.00 97 1021.6
20260831124510 67 22 0.0 0.0 0.00 0.00 0.00 97 1021.7
20260831123030 65 146 0.0 2.0 0.00 0.00 0.00 97 1021.4
20260831121528 64 146 0.0 0.0 0.00 0.00 0.00 97 1021.3
20260831120032 64 146 0.0 0.0 0.00 0.00 0.00 97 1021.4
20260831114526 63 146 0.0 0.0 0.00 0.00 0.00 96 1021.5
20260831113023 63 146 0.0 0.0 0.00 0.00 0.00 96 1021.4
20260831111526 63 146 0.0 0.0 0.00 0.00 0.00 96 1021.4
20260831110012 63 146 0.0 0.0 0.00 0.00 0.00 96 1021.3
20260831104539 63 146 0.0 0.0 0.00 0.00 0.00 96 1021.1
20260831103052 64 146 0.0 0.0 0.00 0.00 0.00 96 1020.9
20260831101530 64 146 0.0 0.0 0.00 0.00 0.00 96 1020.9
20260831100035 64 146 0.0 0.0 0.00 0.00 0.00 96 1020.7
20260831094527 64 146 0.0 0.0 0.00 0.00 0.00 96 1020.7
20260831093019 64 146 0.0 0.0 0.00 0.00 0.00 96 1020.6
20260831091511 64 146 0.0 0.0 0.00 0.00 0.00 96 1020.6
20260831090011 65 146 0.0 0.0 0.00 0.00 0.00 96 1020.6
20260831084508 65 146 0.0 0.0 0.00 0.00 0.00 96 1020.5
20260831083029 65 146 0.0 0.0 0.00 0.00 0.00 96 1020.6
20260831081525 65 146 0.0 0.0 0.00 0.00 0.00 96 1020.6
20260831080045 65 146 0.0 0.0 0.00 0.00 0.00 96 1020.6
20260831074519 65 146 0.0 0.0 0.00 0.00 0.00 96 1020.6
20260831073026 65 146 0.0 0.0 0.00 0.00 0.00 96 1020.6
20260831071512 66 146 0.0 0.0 0.00 0.00 0.00 95 1020.6
20260831070008 66 146 0.0 0.0 0.00 0.00 0.00 95 1020.7
20260831064533 66 146 0.0 0.0 0.00 0.00 0.00 96 1020.8
20260831063028 66 146 0.0 0.0 0.00 0.00 0.00 95 1020.9
20260831061528 66 146 0.0 0.0 0.00 0.00 0.00 95 1021.0
20260831060023 67 146 0.0 0.0 0.00 0.00 0.00 95 1021.0
20260831054523 67 146 0.0 0.0 0.00 0.00 0.00 95 1021.3
20260831053015 67 146 0.0 0.0 0.00 0.00 0.00 95 1021.1
20260831051534 67 146 0.0 0.0 0.00 0.00 0.00 95 1021.3
20260831050031 67 146 0.0 0.0 0.00 0.00 0.00 95 1021.2
20260831044531 68 146 0.0 0.0 0.00 0.00 0.00 95 1021.0
20260831043027 68 146 0.0 0.0 0.00 0.00 0.00 95 1021.1
20260831041523 68 146 0.0 0.0 0.00 0.00 0.00 95 1021.3
20260831040035 68 146 0.0 0.0 0.00 0.00 0.00 95 1021.6